When you browse on this site, cookies collect data to enhance your experience and personalize the content and advertising you see.
Visit our Privacy Policy to learn more. By continuing to use the site, you agree to this use of cookies and data.
  • Em Portugal
  • Lista de países
  • Para 7 dias
  • Temperatura da água
  • Mapas de satélite
  • Mapa do tempo
  • Widgets de tempo
  • user-avatar
    Iniciar Sessão

    Previsão horária em Nachiczewan

    Hoje, 17 Julho, Quarta-feira

    Tempo Temperatura Precipitação Vento Pressão Humidade
    00:00 +28°C° 0 mm 3 m/s 683 mmHg 40%
    01:00 +28°C° 0 mm 2 m/s 683 mmHg 42%
    02:00 +27°C° 0 mm 2 m/s 682 mmHg 45%
    03:00 +26°C° 0 mm 1 m/s 682 mmHg 49%
    04:00 +26°C° 0 mm 1 m/s 682 mmHg 49%
    05:00 +26°C° 0 mm 1 m/s 683 mmHg 48%
    06:00 +26°C° 0 mm 1 m/s 683 mmHg 48%
    07:00 +28°C° 0 mm 1 m/s 683 mmHg 44%
    08:00 +29°C° 0 mm 1 m/s 683 mmHg 40%
    09:00 +30°C° 0 mm 1 m/s 683 mmHg 36%
    10:00 +32°C° 0 mm 1 m/s 683 mmHg 32%
    11:00 +34°C° 0 mm 2 m/s 683 mmHg 28%
    12:00 +36°C° 0 mm 2 m/s 683 mmHg 24%
    13:00 +37°C° 0 mm 3 m/s 683 mmHg 21%
    14:00 +38°C° 0 mm 4 m/s 683 mmHg 19%
    15:00 +40°C° 0 mm 4 m/s 682 mmHg 16%
    16:00 +40°C° 0 mm 5 m/s 682 mmHg 17%
    17:00 +40°C° 0 mm 6 m/s 682 mmHg 19%
    18:00 +39°C° 0 mm 6 m/s 683 mmHg 20%
    19:00 +36°C° 0 mm 5 m/s 683 mmHg 25%
    20:00 +34°C° 0 mm 5 m/s 683 mmHg 31%
    21:00 +32°C° 0 mm 4 m/s 683 mmHg 37%
    22:00 +30°C° 0 mm 3 m/s 683 mmHg 38%
    23:00 +29°C° 0 mm 3 m/s 683 mmHg 39%

    Amanhã, 18 Julho, Quinta-feira

    Tempo Temperatura Precipitação Vento Pressão Humidade
    00:00 +28°C° 0 mm 2 m/s 683 mmHg 41%
    01:00 +27°C° 0 mm 2 m/s 683 mmHg 42%
    02:00 +27°C° 0 mm 2 m/s 683 mmHg 44%
    03:00 +26°C° 0 mm 1 m/s 683 mmHg 46%
    04:00 +26°C° 0 mm 1 m/s 683 mmHg 46%
    05:00 +27°C° 0 mm 1 m/s 683 mmHg 45%
    06:00 +27°C° 0 mm 1 m/s 683 mmHg 45%
    07:00 +28°C° 0 mm 1 m/s 684 mmHg 40%
    08:00 +30°C° 0 mm 1 m/s 684 mmHg 36%
    09:00 +32°C° 0 mm 1 m/s 684 mmHg 32%
    10:00 +33°C° 0 mm 1 m/s 684 mmHg 27%
    11:00 +36°C° 0 mm 2 m/s 684 mmHg 23%
    12:00 +38°C° 0 mm 2 m/s 684 mmHg 18%
    13:00 +39°C° 0 mm 3 m/s 684 mmHg 15%
    14:00 +41°C° 0 mm 4 m/s 684 mmHg 12%
    15:00 +43°C° 0 mm 5 m/s 683 mmHg 9%
    16:00 +43°C° 0 mm 5 m/s 683 mmHg 9%
    17:00 +42°C° 0 mm 6 m/s 683 mmHg 9%
    18:00 +43°C° 0 mm 7 m/s 683 mmHg 9%
    19:00 +40°C° 0 mm 6 m/s 683 mmHg 13%
    20:00 +36°C° 0 mm 4 m/s 684 mmHg 17%
    21:00 +34°C° 0 mm 2 m/s 684 mmHg 22%
    22:00 +32°C° 0 mm 2 m/s 684 mmHg 25%
    23:00 +31°C° 0 mm 1 m/s 684 mmHg 28%

    Depois de amanhã, 19 Julho, Sexta-feira

    Tempo Temperatura Precipitação Vento Pressão Humidade
    00:00 +29°C° 0 mm 1 m/s 684 mmHg 32%
    01:00 +29°C° 0 mm 1 m/s 684 mmHg 33%
    02:00 +28°C° 0 mm 1 m/s 684 mmHg 33%
    03:00 +27°C° 0 mm 1 m/s 684 mmHg 34%
    04:00 +27°C° 0 mm 1 m/s 684 mmHg 33%
    05:00 +28°C° 0 mm 1 m/s 684 mmHg 31%
    06:00 +28°C° 0 mm 1 m/s 684 mmHg 30%
    07:00 +29°C° 0 mm 1 m/s 685 mmHg 27%
    08:00 +31°C° 0 mm 2 m/s 685 mmHg 24%
    09:00 +32°C° 0 mm 2 m/s 685 mmHg 21%
    10:00 +34°C° 0 mm 2 m/s 685 mmHg 20%
    11:00 +36°C° 0 mm 2 m/s 685 mmHg 19%
    12:00 +36°C° 0 mm 1 m/s 685 mmHg 17%
    13:00 +37°C° 0 mm 1 m/s 685 mmHg 16%
    14:00 +39°C° 0 mm 1 m/s 684 mmHg 15%
    15:00 +40°C° 0 mm 2 m/s 684 mmHg 13%
    16:00 +39°C° 0 mm 2 m/s 684 mmHg 15%
    17:00 +39°C° 0 mm 3 m/s 685 mmHg 17%
    18:00 +40°C° 0 mm 4 m/s 685 mmHg 19%
    19:00 +37°C° 0 mm 4 m/s 685 mmHg 25%
    20:00 +35°C° 0 mm 4 m/s 685 mmHg 30%
    21:00 +32°C° 0 mm 4 m/s 686 mmHg 36%
    22:00 +31°C° 0 mm 3 m/s 686 mmHg 39%
    23:00 +30°C° 0 mm 2 m/s 686 mmHg 41%

    20 Julho, Sábado

    Tempo Temperatura Precipitação Vento Pressão Humidade
    00:00 +29°C° 0 mm 2 m/s 686 mmHg 44%
    01:00 +28°C° 0 mm 2 m/s 687 mmHg 46%
    02:00 +28°C° 0 mm 1 m/s 687 mmHg 48%
    03:00 +27°C° 0 mm 1 m/s 687 mmHg 50%
    04:00 +27°C° 0 mm 1 m/s 687 mmHg 50%
    05:00 +27°C° 0 mm 1 m/s 687 mmHg 50%
    06:00 +27°C° 0 mm 1 m/s 688 mmHg 50%
    07:00 +28°C° 0 mm 1 m/s 688 mmHg 45%
    08:00 +29°C° 0 mm 2 m/s 688 mmHg 41%
    09:00 +31°C° 0 mm 2 m/s 688 mmHg 37%
    10:00 +34°C° 0 mm 2 m/s 688 mmHg 32%
    11:00 +35°C° 0 mm 3 m/s 688 mmHg 28%
    12:00 +37°C° 0 mm 4 m/s 689 mmHg 23%
    13:00 +38°C° 0 mm 4 m/s 688 mmHg 22%
    14:00 +40°C° 0 mm 5 m/s 688 mmHg 20%
    15:00 +41°C° 0 mm 5 m/s 688 mmHg 18%
    16:00 +40°C° 0 mm 6 m/s 688 mmHg 20%
    17:00 +40°C° 0 mm 6 m/s 688 mmHg 21%
    18:00 +39°C° 0 mm 7 m/s 688 mmHg 23%
    19:00 +36°C° 0 mm 6 m/s 688 mmHg 27%
    20:00 +34°C° 0 mm 5 m/s 688 mmHg 31%
    21:00 +31°C° 0 mm 3 m/s 689 mmHg 35%
    22:00 +30°C° 0 mm 3 m/s 689 mmHg 37%
    23:00 +29°C° 0 mm 3 m/s 689 mmHg 39%

    21 Julho, Domingo

    Tempo Temperatura Precipitação Vento Pressão Humidade
    00:00 +28°C° 0 mm 2 m/s 689 mmHg 41%
    01:00 +27°C° 0 mm 2 m/s 689 mmHg 43%
    02:00 +27°C° 0 mm 2 m/s 688 mmHg 45%
    03:00 +26°C° 0 mm 2 m/s 688 mmHg 47%
    04:00 +26°C° 0 mm 2 m/s 688 mmHg 46%
    05:00 +26°C° 0 mm 1 m/s 688 mmHg 46%
    06:00 +26°C° 0 mm 1 m/s 688 mmHg 45%
    07:00 +28°C° 0 mm 2 m/s 688 mmHg 41%
    08:00 +30°C° 0 mm 2 m/s 688 mmHg 36%
    09:00 +31°C° 0 mm 2 m/s 688 mmHg 32%
    10:00 +35°C° 0 mm 2 m/s 688 mmHg 28%
    11:00 +37°C° 0 mm 3 m/s 688 mmHg 23%
    12:00 +39°C° 0 mm 3 m/s 688 mmHg 19%
    13:00 +42°C° 0 mm 4 m/s 688 mmHg 17%
    14:00 +43°C° 0 mm 5 m/s 688 mmHg 15%
    15:00 +45°C° 0 mm 5 m/s 687 mmHg 14%
    16:00 +45°C° 0 mm 5 m/s 687 mmHg 15%
    17:00 +43°C° 0 mm 5 m/s 687 mmHg 16%
    18:00 +42°C° 0 mm 5 m/s 687 mmHg 17%
    19:00 +40°C° 0 mm 4 m/s 687 mmHg 21%
    20:00 +37°C° 0 mm 4 m/s 687 mmHg 25%
    21:00 +34°C° 0 mm 3 m/s 687 mmHg 30%
    22:00 +33°C° 0 mm 3 m/s 686 mmHg 31%
    23:00 +31°C° 0 mm 3 m/s 686 mmHg 33%

    22 Julho, Segunda-feira

    Tempo Temperatura Precipitação Vento Pressão Humidade
    00:00 +30°C° 0 mm 3 m/s 686 mmHg 34%
    01:00 +29°C° 0 mm 2 m/s 686 mmHg 36%
    02:00 +29°C° 0 mm 2 m/s 685 mmHg 38%
    03:00 +28°C° 0 mm 1 m/s 685 mmHg 40%
    04:00 +28°C° 0 mm 1 m/s 685 mmHg 40%
    05:00 +28°C° 0 mm 1 m/s 685 mmHg 40%
    06:00 +28°C° 0 mm 1 m/s 685 mmHg 40%
    07:00 +30°C° 0 mm 1 m/s 685 mmHg 37%
    08:00 +31°C° 0 mm 1 m/s 685 mmHg 34%
    09:00 +33°C° 0 mm 1 m/s 685 mmHg 31%
    10:00 +34°C° 0 mm 1 m/s 685 mmHg 28%
    11:00 +37°C° 0 mm 2 m/s 685 mmHg 24%
    12:00 +39°C° 0 mm 2 m/s 685 mmHg 20%
    13:00 +42°C° 0 mm 3 m/s 685 mmHg 18%
    14:00 +44°C° 0 mm 4 m/s 685 mmHg 16%
    15:00 +46°C° 0 mm 6 m/s 685 mmHg 13%
    16:00 +45°C° 0 mm 6 m/s 684 mmHg 15%
    17:00 +44°C° 0 mm 6 m/s 684 mmHg 17%
    18:00 +41°C° 0 mm 7 m/s 684 mmHg 19%
    19:00 +39°C° 0 mm 6 m/s 684 mmHg 24%
    20:00 +35°C° 0 mm 5 m/s 684 mmHg 28%
    21:00 +33°C° 0 mm 4 m/s 684 mmHg 33%
    22:00 +31°C° 0 mm 3 m/s 684 mmHg 34%
    23:00 +30°C° 0 mm 3 m/s 684 mmHg 36%
    Mostrar mais